AFL694 UHWW-UHHH

Flight info

Callsign AFL694
Flight time N/A
Altitude 39000
Route DOLMA2F DOLMA B356 TD B355 ARDEL ARDEL6F
Aircraft A20N/M-SDE2E3FGHIRWXY/LB1

Departure

Time N/A
Airport Vladivostok International Airport (UHWW)

Arrival

Time 2026-04-20 20:33
Airport Khabarovsk Novy Airport (UHHH)
Time Latitude Longitude Altitude Speed Heading
2026-04-20 19:21 43.97889 132.84567 22620 ft 435 kts 36°
2026-04-20 19:22 44.00169 132.87377 23116 ft 440 kts 36°
2026-04-20 19:22 44.02450 132.90192 23558 ft 444 kts 37°
2026-04-20 19:22 44.04756 132.93038 24037 ft 447 kts 37°
2026-04-20 19:22 44.07100 132.95935 24478 ft 450 kts 38°
2026-04-20 19:23 44.09453 132.98843 24910 ft 453 kts 38°
2026-04-20 19:23 44.11815 133.01766 25331 ft 456 kts 38°
2026-04-20 19:23 44.14192 133.04712 25764 ft 459 kts 39°
2026-04-20 19:23 44.16590 133.07690 26157 ft 463 kts 39°
2026-04-20 19:24 44.18971 133.10650 26537 ft 466 kts 40°
2026-04-20 19:24 44.21471 133.13527 26908 ft 468 kts 35°
2026-04-20 19:24 44.24102 133.16247 27261 ft 472 kts 34°
2026-04-20 19:24 44.26755 133.18958 27604 ft 475 kts 35°
2026-04-20 19:25 44.29438 133.21698 27946 ft 478 kts 35°
2026-04-20 19:25 44.32133 133.24455 28289 ft 482 kts 36°
2026-04-20 19:25 44.34846 133.27241 28589 ft 486 kts 36°
2026-04-20 19:25 44.37565 133.30041 28894 ft 489 kts 36°
2026-04-20 19:26 44.40330 133.32896 29177 ft 493 kts 37°
2026-04-20 19:26 44.43096 133.35756 29472 ft 497 kts 37°
2026-04-20 19:26 44.45883 133.38643 29721 ft 501 kts 37°
2026-04-20 19:26 44.48688 133.41554 29979 ft 503 kts 37°
2026-04-20 19:27 44.51509 133.44487 30260 ft 506 kts 37°
2026-04-20 19:27 44.54337 133.47434 30516 ft 509 kts 37°
2026-04-20 19:27 44.57183 133.50405 30786 ft 511 kts 37°
2026-04-20 19:27 44.60035 133.53388 31112 ft 511 kts 37°
2026-04-20 19:28 44.62888 133.56376 31454 ft 511 kts 37°
2026-04-20 19:28 44.65740 133.59366 31794 ft 512 kts 37°
2026-04-20 19:28 44.68591 133.62359 32135 ft 511 kts 37°
2026-04-20 19:28 44.71437 133.65349 32484 ft 511 kts 37°
2026-04-20 19:29 44.74290 133.68350 32816 ft 511 kts 37°
2026-04-20 19:29 44.77097 133.71307 33150 ft 511 kts 37°
2026-04-20 19:29 44.79939 133.74303 33479 ft 510 kts 38°
2026-04-20 19:29 44.82781 133.77303 33771 ft 510 kts 38°
2026-04-20 19:30 44.85619 133.80302 34037 ft 509 kts 38°
2026-04-20 19:30 44.88449 133.83297 34296 ft 508 kts 38°
2026-04-20 19:30 44.91274 133.86290 34533 ft 508 kts 38°
2026-04-20 19:31 44.96974 133.92128 34239 ft 503 kts 36°
2026-04-20 19:31 44.99833 133.94948 33809 ft 500 kts 36°
2026-04-20 19:31 45.02684 133.97753 33274 ft 497 kts 36°
2026-04-20 19:31 45.05506 134.00539 32717 ft 493 kts 36°
2026-04-20 19:32 45.08309 134.03318 32182 ft 489 kts 37°
2026-04-20 19:32 45.11086 134.06082 31657 ft 486 kts 37°
2026-04-20 19:32 45.13840 134.08831 31132 ft 482 kts 38°
2026-04-20 19:32 45.16572 134.11564 30613 ft 479 kts 38°
2026-04-20 19:33 45.19246 134.14242 30119 ft 476 kts 38°
2026-04-20 19:33 45.21951 134.16954 29611 ft 473 kts 39°
2026-04-20 19:33 45.24622 134.19637 29094 ft 468 kts 39°
2026-04-20 19:33 45.27266 134.22297 28624 ft 462 kts 39°
2026-04-20 19:34 45.29881 134.24935 28124 ft 457 kts 39°
2026-04-20 19:34 45.32455 134.27537 27640 ft 452 kts 39°
2026-04-20 19:34 45.35007 134.30121 27161 ft 448 kts 39°
2026-04-20 19:34 45.37528 134.32678 26686 ft 443 kts 39°
2026-04-20 19:35 45.40029 134.35216 26216 ft 439 kts 39°
2026-04-20 19:35 45.42498 134.37725 25763 ft 435 kts 39°
2026-04-20 19:35 45.44923 134.40193 25294 ft 431 kts 39°
2026-04-20 19:35 45.47350 134.42664 24858 ft 427 kts 39°
2026-04-20 19:36 45.49754 134.45115 24413 ft 423 kts 39°
2026-04-20 19:36 45.52166 134.47576 23980 ft 419 kts 39°
2026-04-20 19:36 45.54497 134.49958 23553 ft 416 kts 39°
2026-04-20 19:36 45.56862 134.52376 23097 ft 412 kts 39°
2026-04-20 19:37 45.59152 134.54720 22607 ft 408 kts 39°
2026-04-20 19:37 45.61449 134.57073 22126 ft 405 kts 39°
2026-04-20 19:37 45.63734 134.59417 21633 ft 401 kts 39°
2026-04-20 19:37 45.65992 134.61736 21105 ft 399 kts 39°
2026-04-20 19:38 45.68237 134.64044 20688 ft 394 kts 39°
2026-04-20 19:38 45.70449 134.66320 20240 ft 390 kts 39°
2026-04-20 19:38 45.72633 134.68569 19817 ft 386 kts 39°
2026-04-20 19:38 45.74798 134.70802 19373 ft 383 kts 38°
2026-04-20 19:39 45.76957 134.73029 18942 ft 379 kts 38°
2026-04-20 19:39 45.79091 134.75236 18528 ft 376 kts 38°
2026-04-20 19:39 45.81204 134.77424 18115 ft 373 kts 38°
2026-04-20 19:39 45.83291 134.79586 17730 ft 368 kts 38°
2026-04-20 19:40 45.85353 134.81721 17606 ft 366 kts 38°
2026-04-20 19:40 45.87432 134.83876 17592 ft 370 kts 38°
2026-04-20 19:40 45.89622 134.85800 17599 ft 370 kts 25°
2026-04-20 19:40 45.92090 134.86900 17606 ft 380 kts
2026-04-20 19:41 45.94783 134.87296 17600 ft 408 kts
2026-04-20 19:41 45.97746 134.87621 17597 ft 435 kts
2026-04-20 19:41 46.00762 134.87966 17594 ft 436 kts
2026-04-20 19:41 46.03723 134.88331 17591 ft 417 kts
2026-04-20 19:42 46.06536 134.88696 17593 ft 397 kts
2026-04-20 19:42 46.09229 134.89056 17586 ft 379 kts
2026-04-20 19:42 46.11801 134.89406 17591 ft 368 kts
2026-04-20 19:42 46.14375 134.89759 17587 ft 374 kts
2026-04-20 19:43 46.16966 134.90113 17588 ft 373 kts
2026-04-20 19:43 46.19551 134.90464 17589 ft 373 kts
2026-04-20 19:43 46.22131 134.90814 17581 ft 373 kts
2026-04-20 19:43 46.24719 134.91165 17580 ft 373 kts
2026-04-20 19:44 46.27317 134.91516 17581 ft 374 kts
2026-04-20 19:44 46.29907 134.91866 17584 ft 374 kts
2026-04-20 19:44 46.32491 134.92215 17576 ft 374 kts
2026-04-20 19:44 46.35087 134.92567 17579 ft 374 kts
2026-04-20 19:45 46.37684 134.92917 17580 ft 374 kts
2026-04-20 19:45 46.40274 134.93269 17577 ft 375 kts
2026-04-20 19:45 46.42873 134.93622 17573 ft 375 kts
2026-04-20 19:45 46.45470 134.93975 17574 ft 375 kts
2026-04-20 19:46 46.48071 134.94329 17574 ft 375 kts
2026-04-20 19:46 46.50664 134.94681 17572 ft 375 kts
2026-04-20 19:46 46.53270 134.95035 17574 ft 375 kts
2026-04-20 19:46 46.55870 134.95387 17573 ft 376 kts
2026-04-20 19:47 46.58482 134.95742 17566 ft 376 kts
2026-04-20 19:47 46.61095 134.96097 17574 ft 377 kts
2026-04-20 19:47 46.63676 134.96448 17565 ft 377 kts
2026-04-20 19:47 46.66293 134.96804 17569 ft 378 kts
2026-04-20 19:48 46.68915 134.97161 17565 ft 379 kts
2026-04-20 19:48 46.71532 134.97519 17564 ft 379 kts
2026-04-20 19:48 46.74158 134.97878 17562 ft 378 kts
2026-04-20 19:48 46.76768 134.98235 17421 ft 376 kts
2026-04-20 19:49 46.79364 134.98590 17088 ft 373 kts
2026-04-20 19:49 46.81919 134.99053 16671 ft 368 kts 14°
2026-04-20 19:49 46.84375 135.00040 16224 ft 364 kts 21°
2026-04-20 19:49 46.86778 135.01172 15800 ft 360 kts 21°
2026-04-20 19:50 46.89155 135.02283 15391 ft 356 kts 20°
2026-04-20 19:50 46.91514 135.03361 14967 ft 353 kts 19°
2026-04-20 19:50 46.93850 135.04408 14545 ft 350 kts 19°
2026-04-20 19:50 46.96171 135.05435 14158 ft 347 kts 18°
2026-04-20 19:51 46.98470 135.06448 13745 ft 344 kts 18°
2026-04-20 19:51 47.00755 135.07453 13370 ft 341 kts 18°
2026-04-20 19:51 47.02984 135.08435 12931 ft 338 kts 18°
2026-04-20 19:51 47.05229 135.09426 12506 ft 335 kts 17°
2026-04-20 19:52 47.07454 135.10410 12088 ft 332 kts 17°
2026-04-20 19:52 47.09681 135.11396 11673 ft 329 kts 17°
2026-04-20 19:52 47.11833 135.12350 11278 ft 326 kts 17°
2026-04-20 19:52 47.13998 135.13313 10845 ft 323 kts 17°
2026-04-20 19:53 47.15447 135.13957 10585 ft 321 kts 17°
2026-04-20 19:53 47.18286 135.15220 10050 ft 318 kts 16°
2026-04-20 19:53 47.20396 135.16160 9669 ft 315 kts 16°
2026-04-20 19:53 47.22480 135.17089 9279 ft 312 kts 16°
2026-04-20 19:54 47.24522 135.18002 9129 ft 300 kts 15°
2026-04-20 19:54 47.26479 135.18876 9007 ft 288 kts 15°
2026-04-20 19:54 47.27729 135.19436 8931 ft 280 kts 15°
2026-04-20 19:54 47.29556 135.20252 8820 ft 268 kts 15°
2026-04-20 19:55 47.31850 135.21278 8644 ft 253 kts 15°
2026-04-20 19:55 47.33519 135.22026 8295 ft 250 kts 15°
2026-04-20 19:55 47.34636 135.22527 8046 ft 248 kts 14°
2026-04-20 19:55 47.36282 135.23267 7690 ft 246 kts 14°
2026-04-20 19:56 47.37908 135.23999 7397 ft 244 kts 14°
2026-04-20 19:56 47.39524 135.24729 7089 ft 241 kts 13°
2026-04-20 19:56 47.41101 135.25443 7009 ft 231 kts 13°
2026-04-20 19:56 47.42697 135.26161 7076 ft 245 kts 13°
2026-04-20 19:57 47.44311 135.26884 7085 ft 241 kts 13°
2026-04-20 19:57 47.45918 135.27606 7076 ft 242 kts 13°
2026-04-20 19:57 47.47508 135.28322 7074 ft 242 kts 13°
2026-04-20 19:57 47.49137 135.29056 7079 ft 242 kts 13°
2026-04-20 19:58 47.50725 135.29772 7073 ft 242 kts 13°
2026-04-20 19:58 47.52349 135.30506 7084 ft 253 kts 13°
2026-04-20 19:58 47.54183 135.31319 7076 ft 291 kts 13°
2026-04-20 19:58 47.56158 135.32203 7076 ft 297 kts 14°
2026-04-20 19:59 47.58128 135.33097 7072 ft 296 kts 14°
2026-04-20 19:59 47.60103 135.34001 7070 ft 297 kts 14°
2026-04-20 19:59 47.62074 135.34902 7071 ft 297 kts 14°
2026-04-20 19:59 47.64052 135.35805 7063 ft 298 kts 14°
2026-04-20 20:00 47.66028 135.36704 7070 ft 297 kts 14°
2026-04-20 20:00 47.68013 135.37608 7067 ft 298 kts 14°
2026-04-20 20:00 47.70001 135.38514 7069 ft 298 kts 14°
2026-04-20 20:00 47.72005 135.39428 7068 ft 298 kts 14°
2026-04-20 20:01 47.73983 135.40332 7061 ft 299 kts 14°
2026-04-20 20:01 47.75971 135.41242 7060 ft 299 kts 14°
2026-04-20 20:01 47.77970 135.42158 7066 ft 299 kts 14°
2026-04-20 20:01 47.79958 135.43070 7057 ft 299 kts 14°
2026-04-20 20:02 47.81970 135.43994 7059 ft 299 kts 14°
2026-04-20 20:02 47.83961 135.44909 7058 ft 299 kts 14°
2026-04-20 20:02 47.85957 135.45827 7058 ft 299 kts 14°
2026-04-20 20:02 47.87944 135.46742 7057 ft 300 kts 14°
2026-04-20 20:03 47.89934 135.47658 7061 ft 300 kts 14°
2026-04-20 20:03 47.91933 135.48580 7049 ft 300 kts 14°
2026-04-20 20:03 47.93941 135.49508 7048 ft 300 kts 14°
2026-04-20 20:03 47.95920 135.50423 7044 ft 300 kts 14°
2026-04-20 20:04 47.97922 135.51346 7052 ft 300 kts 14°
2026-04-20 20:04 47.99912 135.52266 7043 ft 300 kts 15°
2026-04-20 20:04 48.01910 135.53190 7047 ft 300 kts 15°
2026-04-20 20:04 48.03887 135.54106 7048 ft 300 kts 15°
2026-04-20 20:05 48.05903 135.55041 7047 ft 300 kts 15°
2026-04-20 20:05 48.07896 135.55965 7044 ft 300 kts 15°
2026-04-20 20:05 48.09892 135.56890 7041 ft 300 kts 15°
2026-04-20 20:05 48.11861 135.57805 7039 ft 300 kts 15°
2026-04-20 20:06 48.13882 135.58745 7042 ft 300 kts 15°
2026-04-20 20:06 48.15873 135.59671 7038 ft 300 kts 15°
2026-04-20 20:06 48.17869 135.60600 7042 ft 300 kts 15°
2026-04-20 20:06 48.19842 135.61520 7037 ft 300 kts 15°
2026-04-20 20:07 48.21843 135.62454 7037 ft 300 kts 15°
2026-04-20 20:07 48.23831 135.63383 7034 ft 300 kts 15°
2026-04-20 20:07 48.25830 135.64318 7034 ft 299 kts 15°
2026-04-20 20:07 48.27769 135.65229 7031 ft 284 kts 15°
2026-04-20 20:08 48.29602 135.66093 7028 ft 266 kts 15°
2026-04-20 20:08 48.31303 135.66898 7023 ft 247 kts 15°
2026-04-20 20:08 48.32931 135.67665 7034 ft 248 kts 15°
2026-04-20 20:08 48.34574 135.68434 7031 ft 246 kts 15°
2026-04-20 20:09 48.35123 135.68690 7033 ft 246 kts 15°
2026-04-20 20:09 48.36927 135.69535 7029 ft 246 kts 15°
2026-04-20 20:09 48.38561 135.70301 7005 ft 245 kts 15°
2026-04-20 20:09 48.40185 135.71064 6768 ft 243 kts 15°
2026-04-20 20:10 48.41795 135.71822 6448 ft 242 kts 14°
2026-04-20 20:10 48.43396 135.72577 6105 ft 240 kts 14°
2026-04-20 20:10 48.44986 135.73328 5772 ft 238 kts 14°
2026-04-20 20:10 48.46547 135.74068 5551 ft 233 kts 14°
2026-04-20 20:11 48.48123 135.74812 5522 ft 239 kts 14°
2026-04-20 20:11 48.49705 135.75557 5523 ft 238 kts 14°
2026-04-20 20:11 48.51287 135.76301 5522 ft 238 kts 14°
2026-04-20 20:11 48.52865 135.77045 5522 ft 238 kts 14°
2026-04-20 20:12 48.54450 135.77792 5521 ft 238 kts 14°
2026-04-20 20:12 48.56030 135.78537 5522 ft 238 kts 14°
2026-04-20 20:12 48.57608 135.79283 5519 ft 238 kts 14°
2026-04-20 20:13 48.60777 135.80784 5520 ft 238 kts 14°
2026-04-20 20:13 48.62362 135.81534 5517 ft 239 kts 14°
2026-04-20 20:13 48.63949 135.82285 5516 ft 239 kts 14°
2026-04-20 20:13 48.65539 135.83038 5520 ft 239 kts 14°
2026-04-20 20:14 48.67146 135.83688 5518 ft 239 kts
2026-04-20 20:14 48.68798 135.83834 5513 ft 237 kts 357°
2026-04-20 20:14 48.70449 135.83836 5515 ft 238 kts 357°
2026-04-20 20:14 48.72104 135.83844 5518 ft 238 kts 357°
2026-04-20 20:15 48.73763 135.83870 5512 ft 238 kts 358°
2026-04-20 20:15 48.75395 135.83910 5519 ft 238 kts 358°
2026-04-20 20:15 48.77059 135.83958 5513 ft 239 kts 359°
2026-04-20 20:15 48.78711 135.84009 5513 ft 237 kts 359°
2026-04-20 20:16 48.80369 135.84062 5514 ft 239 kts 359°
2026-04-20 20:16 48.82030 135.83996 5513 ft 237 kts 347°
2026-04-20 20:16 48.83556 135.83147 5514 ft 233 kts 326°
2026-04-20 20:16 48.84936 135.81854 5514 ft 233 kts 325°
2026-04-20 20:17 48.86324 135.80558 5510 ft 233 kts 326°
2026-04-20 20:17 48.87715 135.79291 5509 ft 233 kts 327°
2026-04-20 20:17 48.89112 135.78044 5507 ft 233 kts 327°
2026-04-20 20:17 48.90516 135.76801 5506 ft 233 kts 328°
2026-04-20 20:18 48.91833 135.75409 5508 ft 230 kts 315°
2026-04-20 20:18 48.92835 135.73526 5515 ft 228 kts 300°
2026-04-20 20:18 48.93675 135.71485 5511 ft 228 kts 300°
2026-04-20 20:18 48.94515 135.69440 5506 ft 228 kts 301°
2026-04-20 20:19 48.95363 135.67413 5512 ft 227 kts 301°
2026-04-20 20:19 48.96220 135.65395 5502 ft 227 kts 302°
2026-04-20 20:19 48.97084 135.63379 5505 ft 227 kts 302°
2026-04-20 20:19 48.97849 135.61285 5507 ft 225 kts 290°
2026-04-20 20:20 48.98233 135.58983 5507 ft 224 kts 276°
2026-04-20 20:20 48.98398 135.56624 5505 ft 224 kts 275°
2026-04-20 20:20 48.98556 135.54267 5506 ft 224 kts 276°
2026-04-20 20:20 48.98729 135.51903 5504 ft 224 kts 276°
2026-04-20 20:21 48.98828 135.49574 5498 ft 223 kts 262°
2026-04-20 20:21 48.98242 135.47405 5503 ft 224 kts 231°
2026-04-20 20:21 48.96991 135.46032 5443 ft 224 kts 200°
2026-04-20 20:21 48.95446 135.45833 5123 ft 228 kts 173°
2026-04-20 20:22 48.94390 135.46134 5031 ft 229 kts 170°
2026-04-20 20:22 48.92327 135.46815 4999 ft 230 kts 171°
2026-04-20 20:22 48.90758 135.47303 5000 ft 230 kts 172°
2026-04-20 20:22 48.89185 135.47750 5007 ft 230 kts 173°
2026-04-20 20:23 48.87616 135.48164 4901 ft 228 kts 173°
2026-04-20 20:23 48.86050 135.48561 4580 ft 228 kts 174°
2026-04-20 20:23 48.84487 135.48952 4270 ft 225 kts 173°
2026-04-20 20:23 48.82978 135.49333 4155 ft 213 kts 174°
2026-04-20 20:24 48.81584 135.49690 4098 ft 194 kts 174°
2026-04-20 20:24 48.80288 135.50019 3871 ft 185 kts 174°
2026-04-20 20:24 48.79006 135.50337 3438 ft 188 kts 175°
2026-04-20 20:24 48.77715 135.50658 3082 ft 185 kts 174°
2026-04-20 20:25 48.76459 135.50907 3009 ft 187 kts 187°
2026-04-20 20:25 48.75315 135.50178 3009 ft 179 kts 224°
2026-04-20 20:25 48.74423 135.48869 3004 ft 178 kts 229°
2026-04-20 20:25 48.73569 135.47548 2994 ft 166 kts 228°
2026-04-20 20:26 48.72772 135.46363 2997 ft 158 kts 226°
2026-04-20 20:26 48.71994 135.45260 2947 ft 145 kts 225°
2026-04-20 20:26 48.71252 135.44249 2544 ft 144 kts 224°
2026-04-20 20:26 48.70755 135.43577 2225 ft 145 kts 224°
2026-04-20 20:27 48.70014 135.42577 2003 ft 140 kts 224°
2026-04-20 20:27 48.69274 135.41574 2002 ft 144 kts 224°
2026-04-20 20:27 48.68534 135.40569 1978 ft 142 kts 224°
2026-04-20 20:27 48.67815 135.39592 1799 ft 139 kts 224°
2026-04-20 20:28 48.67093 135.38610 1402 ft 139 kts 224°
2026-04-20 20:28 48.66381 135.37636 991 ft 139 kts 224°
2026-04-20 20:28 48.65663 135.36638 826 ft 139 kts 224°
2026-04-20 20:28 48.64945 135.35636 791 ft 140 kts 223°
2026-04-20 20:29 48.64218 135.34643 812 ft 141 kts 223°
2026-04-20 20:29 48.63480 135.33654 753 ft 140 kts 222°
2026-04-20 20:29 48.62740 135.32679 750 ft 141 kts 221°
2026-04-20 20:29 48.61993 135.31715 747 ft 141 kts 221°
2026-04-20 20:30 48.61231 135.30746 749 ft 141 kts 220°
2026-04-20 20:30 48.60474 135.29803 746 ft 141 kts 220°
2026-04-20 20:30 48.59712 135.28866 748 ft 142 kts 220°
2026-04-20 20:30 48.58962 135.27887 635 ft 142 kts 224°
2026-04-20 20:31 48.58264 135.26836 486 ft 141 kts 225°
2026-04-20 20:31 48.57572 135.25786 448 ft 142 kts 225°
2026-04-20 20:31 48.56872 135.24735 420 ft 141 kts 224°
2026-04-20 20:31 48.56183 135.23718 413 ft 131 kts 224°
2026-04-20 20:32 48.55504 135.22740 288 ft 142 kts 223°
2026-04-20 20:32 48.54755 135.21745 296 ft 143 kts 220°
2026-04-20 20:32 48.54041 135.20777 264 ft 134 kts 222°
2026-04-20 20:32 48.53420 135.19931 243 ft 93 kts 221°
2026-04-20 20:33 48.53128 135.19538 244 ft 29 kts 223°
2026-04-20 20:33 48.53084 135.19477 243 ft 7 kts 221°
2026-04-20 20:33 48.53024 135.19346 241 ft 21 kts 249°
2026-04-20 20:33 48.52983 135.19094 238 ft 26 kts 256°
2026-04-20 20:34 48.52974 135.19036 237 ft 0 kts 257°
2026-04-20 20:34 48.52973 135.19035 237 ft 1 kts 256°
2026-04-20 20:35 48.52966 135.18991 241 ft 8 kts 256°
2026-04-20 20:35 48.52949 135.18895 237 ft 11 kts 255°
2026-04-20 20:35 48.52928 135.18783 235 ft 11 kts 254°
2026-04-20 20:35 48.52898 135.18684 233 ft 8 kts 214°
2026-04-20 20:36 48.52851 135.18638 236 ft 9 kts 213°
2026-04-20 20:36 48.52806 135.18570 236 ft 10 kts 226°
2026-04-20 20:36 48.52739 135.18483 236 ft 15 kts 221°
2026-04-20 20:36 48.52652 135.18360 237 ft 15 kts 232°
2026-04-20 20:37 48.52646 135.18279 234 ft 10 kts 295°
2026-04-20 20:37 48.52710 135.18170 239 ft 17 kts 313°
2026-04-20 20:37 48.52798 135.18025 237 ft 20 kts 312°
2026-04-20 20:37 48.52897 135.17859 236 ft 19 kts 311°
2026-04-20 20:38 48.52928 135.17772 237 ft 9 kts 267°
2026-04-20 20:38 48.52898 135.17700 237 ft 8 kts 220°
2026-04-20 20:38 48.52844 135.17626 236 ft 13 kts 223°
2026-04-20 20:38 48.52763 135.17517 236 ft 17 kts 219°
2026-04-20 20:39 48.52647 135.17429 236 ft 20 kts 202°
2026-04-20 20:39 48.52541 135.17374 240 ft 14 kts 176°
2026-04-20 20:39 48.52481 135.17466 237 ft 4 kts 124°
2026-04-20 20:39 48.52494 135.17511 240 ft 8 kts 21°
2026-04-20 20:40 48.52533 135.17554 238 ft 0 kts 39°